KE0FIN Weather Reports


time (UTC)temp
C
wind
direction
speed
KPH
gust
KPH
rain 1hr
cm
rain 24hr
cm
rain mn
cm
humidity
%
barometer
mb
20260906193029 39 122 1.6 3.2 0.00 0.00 0.00 32 1064.8
20260906192524 38 114 1.6 1.6 0.00 0.00 0.00 33 1065.1
20260906192023 38 141 0.0 4.8 0.00 0.00 0.00 33 1065.1
20260906191518 38 147 3.2 9.7 0.00 0.00 0.00 34 1065.1
20260906191017 38 117 3.2 11.3 0.00 0.00 0.00 34 1065.3
20260906190516 38 203 3.2 3.2 0.00 0.00 0.00 33 1065.1
20260906190012 37 42 3.2 3.2 0.00 0.00 0.00 34 1065.5
20260906185510 37 159 4.8 11.3 0.00 0.00 0.00 35 1065.6
20260906185009 37 126 4.8 4.8 0.00 0.00 0.00 36 1065.4
20260906184505 36 144 0.0 3.2 0.00 0.00 0.00 36 1065.6
20260906184000 37 166 3.2 4.8 0.00 0.00 0.00 37 1065.7
20260906183456 37 141 1.6 3.2 0.00 0.00 0.00 38 1065.8
20260906182952 36 120 0.0 1.6 0.00 0.00 0.00 38 1065.9
20260906182447 36 107 0.0 0.0 0.00 0.00 0.00 40 1065.9
20260906181943 36 106 1.6 1.6 0.00 0.00 0.00 38 1066.2
20260906181439 36 121 0.0 3.2 0.00 0.00 0.00 38 1066.2
20260906180935 36 128 0.0 1.6 0.00 0.00 0.00 39 1066.4
20260906180429 35 151 3.2 6.4 0.00 0.00 0.00 39 1066.5
20260906175927 36 175 6.4 9.7 0.00 0.00 0.00 38 1066.6
20260906175422 37 137 0.0 4.8 0.00 0.00 0.00 37 1066.6
20260906174921 37 179 3.2 9.7 0.00 0.00 0.00 37 1066.8
20260906174420 36 117 0.0 1.6 0.00 0.00 0.00 39 1066.8
20260906173916 36 142 1.6 4.8 0.00 0.00 0.00 39 1066.9
20260906173411 36 133 1.6 3.2 0.00 0.00 0.00 39 1067.1
20260906172910 36 126 0.0 3.2 0.00 0.00 0.00 39 1067.3
20260906172407 35 115 0.0 3.2 0.00 0.00 0.00 40 1067.3
20260906171907 35 107 1.6 1.6 0.00 0.00 0.00 41 1067.6
20260906171356 35 121 0.0 0.0 0.00 0.00 0.00 41 1067.5
20260906170852 35 119 0.0 1.6 0.00 0.00 0.00 41 1067.5
20260906170348 35 141 1.6 4.8 0.00 0.00 0.00 41 1067.6
20260906165844 35 129 1.6 1.6 0.00 0.00 0.00 41 1067.8
20260906165343 35 97 1.6 1.6 0.00 0.00 0.00 42 1067.8
20260906164838 35 152 1.6 3.2 0.00 0.00 0.00 42 1067.9
20260906164337 35 135 1.6 3.2 0.00 0.00 0.00 42 1067.8
20260906163833 35 109 0.0 1.6 0.00 0.00 0.00 43 1068.0
20260906163330 34 182 3.2 4.8 0.00 0.00 0.00 43 1067.8
20260906162827 34 139 1.6 3.2 0.00 0.00 0.00 43 1067.8
20260906162326 34 155 3.2 4.8 0.00 0.00 0.00 43 1067.8
20260906161821 34 104 1.6 4.8 0.00 0.00 0.00 43 1067.9
20260906161320 34 113 0.0 1.6 0.00 0.00 0.00 43 1067.9
20260906160819 33 192 1.6 3.2 0.00 0.00 0.00 43 1068.0
20260906160314 33 120 0.0 3.2 0.00 0.00 0.00 44 1067.9
20260906155811 33 149 1.6 3.2 0.00 0.00 0.00 44 1067.7
20260906155307 33 135 0.0 0.0 0.00 0.00 0.00 45 1067.7
20260906154801 33 176 3.2 3.2 0.00 0.00 0.00 45 1067.8
20260906154251 33 113 0.0 4.8 0.00 0.00 0.00 46 1067.6
20260906153749 33 115 0.0 3.2 0.00 0.00 0.00 46 1067.7
20260906153244 32 117 1.6 1.6 0.00 0.00 0.00 47 1067.7
20260906152739 32 178 1.6 1.6 0.00 0.00 0.00 47 1067.7
20260906152233 32 120 0.0 1.6 0.00 0.00 0.00 49 1067.5
20260906151733 32 122 0.0 1.6 0.00 0.00 0.00 49 1067.5
20260906151228 32 104 0.0 3.2 0.00 0.00 0.00 49 1067.5
20260906150724 32 124 0.0 3.2 0.00 0.00 0.00 49 1067.6
20260906150219 33 136 1.6 3.2 0.00 0.00 0.00 48 1067.5
20260906145718 32 128 0.0 4.8 0.00 0.00 0.00 48 1067.6
20260906145217 32 132 0.0 3.2 0.00 0.00 0.00 48 1067.5
20260906144713 32 131 0.0 0.0 0.00 0.00 0.00 49 1067.3
20260906144207 32 135 0.0 1.6 0.00 0.00 0.00 49 1067.6
20260906143706 31 119 0.0 3.2 0.00 0.00 0.00 52 1067.5
20260906143203 31 139 0.0 1.6 0.00 0.00 0.00 53 1067.6
20260906142658 30 154 1.6 3.2 0.00 0.00 0.00 54 1067.7
20260906142153 30 135 0.0 3.2 0.00 0.00 0.00 55 1067.6
20260906141652 30 141 1.6 3.2 0.00 0.00 0.00 55 1067.3
20260906141146 30 132 0.0 1.6 0.00 0.00 0.00 55 1067.3
20260906140640 30 141 1.6 1.6 0.00 0.00 0.00 56 1067.4
20260906140135 29 152 1.6 3.2 0.00 0.00 0.00 57 1067.6
20260906135632 28 120 0.0 1.6 0.00 0.00 0.00 60 1067.3
20260906135128 27 121 0.0 0.0 0.00 0.00 0.00 64 1067.3
20260906134623 27 121 0.0 0.0 0.00 0.00 0.00 65 1067.4
20260906134118 27 121 0.0 0.0 0.00 0.00 0.00 65 1067.2
20260906133614 26 121 0.0 0.0 0.00 0.00 0.00 66 1067.3
20260906133109 26 121 0.0 0.0 0.00 0.00 0.00 67 1067.2
20260906132604 26 121 0.0 0.0 0.00 0.00 0.00 68 1067.1
20260906132100 25 121 0.0 0.0 0.00 0.00 0.00 69 1067.2
20260906131554 25 121 0.0 0.0 0.00 0.00 0.00 69 1067.1
20260906131050 25 121 0.0 0.0 0.00 0.00 0.00 69 1066.8
20260906130544 25 121 0.0 0.0 0.00 0.00 0.00 69 1066.8
20260906130040 25 121 0.0 0.0 0.00 0.00 0.00 69 1067.0
20260906125536 25 121 0.0 0.0 0.00 0.00 0.00 69 1066.9
20260906125031 25 121 0.0 0.0 0.00 0.00 0.00 70 1066.6
20260906124527 25 120 0.0 0.0 0.00 0.00 0.00 70 1066.8
20260906124021 25 120 0.0 0.0 0.00 0.00 0.00 71 1066.6
20260906123520 24 120 0.0 0.0 0.00 0.00 0.00 71 1066.5
20260906123015 24 120 0.0 0.0 0.00 0.00 0.00 71 1066.5
20260906122509 24 119 0.0 0.0 0.00 0.00 0.00 71 1066.5
20260906122006 24 119 0.0 0.0 0.00 0.00 0.00 72 1066.2
20260906121501 24 119 0.0 0.0 0.00 0.00 0.00 72 1066.3
20260906120958 24 119 0.0 0.0 0.00 0.00 0.00 72 1066.1
20260906120453 24 119 0.0 0.0 0.00 0.00 0.00 71 1065.9
20260906115949 24 119 0.0 0.0 0.00 0.00 0.00 71 1065.9
20260906115444 24 119 0.0 0.0 0.00 0.00 0.00 71 1065.6
20260906114938 24 119 0.0 0.0 0.00 0.00 0.00 71 1065.7
20260906114433 24 119 0.0 0.0 0.00 0.00 0.00 71 1065.7
20260906113929 24 119 0.0 0.0 0.00 0.00 0.00 70 1065.7
20260906113426 25 119 0.0 0.0 0.00 0.00 0.00 70 1065.5
20260906112923 25 119 0.0 0.0 0.00 0.00 0.00 70 1065.6
20260906112419 25 119 0.0 0.0 0.00 0.00 0.00 70 1065.5
20260906111914 25 119 0.0 0.0 0.00 0.00 0.00 69 1065.5
20260906111413 25 119 0.0 0.0 0.00 0.00 0.00 69 1065.5
20260906110909 25 119 0.0 0.0 0.00 0.00 0.00 68 1065.5
20260906110404 25 119 0.0 0.0 0.00 0.00 0.00 68 1065.4
20260906105903 25 119 0.0 0.0 0.00 0.00 0.00 68 1065.5
20260906105359 25 119 0.0 0.0 0.00 0.00 0.00 68 1065.6
20260906104854 25 120 0.0 0.0 0.00 0.00 0.00 67 1065.4
20260906104353 25 120 0.0 0.0 0.00 0.00 0.00 67 1065.5
20260906103851 25 120 0.0 0.0 0.00 0.00 0.00 67 1065.5
20260906103349 26 120 0.0 0.0 0.00 0.00 0.00 66 1065.5
20260906102846 26 120 0.0 0.0 0.00 0.00 0.00 66 1065.6
20260906102344 26 120 0.0 0.0 0.00 0.00 0.00 66 1065.5
20260906101840 26 120 0.0 0.0 0.00 0.00 0.00 66 1065.6
20260906101335 26 120 0.0 0.0 0.00 0.00 0.00 66 1065.4
20260906100831 26 120 0.0 0.0 0.00 0.00 0.00 66 1065.5
20260906100329 26 120 0.0 0.0 0.00 0.00 0.00 66 1065.5
20260906095825 26 120 0.0 0.0 0.00 0.00 0.00 65 1065.6
20260906095321 26 120 0.0 0.0 0.00 0.00 0.00 65 1065.5
20260906094820 26 120 0.0 0.0 0.00 0.00 0.00 65 1065.5
20260906094315 26 120 0.0 0.0 0.00 0.00 0.00 65 1065.5
20260906093811 26 120 0.0 0.0 0.00 0.00 0.00 65 1065.6
20260906093307 26 120 0.0 0.0 0.00 0.00 0.00 64 1065.2
20260906092801 26 120 0.0 0.0 0.00 0.00 0.00 64 1065.1
20260906092256 26 120 0.0 0.0 0.00 0.00 0.00 64 1065.4
20260906091752 26 120 0.0 0.0 0.00 0.00 0.00 63 1065.3
20260906091248 26 120 0.0 0.0 0.00 0.00 0.00 63 1065.5
20260906090744 26 121 0.0 0.0 0.00 0.00 0.00 63 1065.2
20260906090242 26 120 0.0 0.0 0.00 0.00 0.00 63 1065.2
20260906085737 26 124 0.0 0.0 0.00 0.00 0.00 63 1065.4
20260906085236 26 131 0.0 0.0 0.00 0.00 0.00 63 1065.3
20260906084730 26 131 0.0 0.0 0.00 0.00 0.00 63 1065.4
20260906084224 26 131 0.0 0.0 0.00 0.00 0.00 63 1065.2
20260906083719 26 131 0.0 0.0 0.00 0.00 0.00 63 1065.1
20260906083215 27 131 0.0 0.0 0.00 0.00 0.00 62 1065.3
20260906082710 27 131 0.0 0.0 0.00 0.00 0.00 62 1065.4
20260906082159 27 131 0.0 0.0 0.00 0.00 0.00 62 1065.4
20260906081650 27 131 0.0 0.0 0.00 0.00 0.00 62 1065.3
20260906081144 27 131 0.0 0.0 0.00 0.00 0.00 62 1065.4
20260906080641 27 131 0.0 0.0 0.00 0.00 0.00 62 1065.3
20260906080136 27 131 0.0 0.0 0.00 0.00 0.00 62 1065.2
20260906075630 27 131 0.0 0.0 0.00 0.00 0.00 62 1065.2
20260906075125 27 131 0.0 0.0 0.00 0.00 0.00 62 1065.4
20260906074621 27 131 0.0 0.0 0.00 0.00 0.00 61 1065.2
20260906074119 27 139 1.6 1.6 0.00 0.00 0.00 60 1065.2
20260906073614 27 136 0.0 1.6 0.00 0.00 0.00 60 1065.2
20260906073110 27 138 0.0 1.6 0.00 0.00 0.00 60 1065.0
20260906072604 27 135 0.0 0.0 0.00 0.00 0.00 60 1065.2
20260906072100 27 136 0.0 0.0 0.00 0.00 0.00 60 1065.2
20260906071556 27 135 0.0 0.0 0.00 0.00 0.00 61 1065.1
20260906071051 27 135 0.0 0.0 0.00 0.00 0.00 61 1064.9
20260906070548 27 135 0.0 0.0 0.00 0.00 0.00 61 1065.0
20260906070043 27 135 0.0 0.0 0.00 0.00 0.00 61 1065.1
20260906065543 27 135 0.0 0.0 0.00 0.00 0.00 61 1064.9
20260906065039 27 135 0.0 0.0 0.00 0.00 0.00 61 1065.0
20260906064534 27 135 0.0 0.0 0.00 0.00 0.00 61 1064.9
20260906064028 27 135 0.0 0.0 0.00 0.00 0.00 63 1065.2
20260906063524 27 135 0.0 0.0 0.00 0.00 0.00 63 1065.1
20260906063020 27 135 0.0 0.0 0.00 0.00 0.00 62 1065.0
20260906062514 27 135 0.0 0.0 0.00 0.00 0.00 61 1065.0
20260906062004 27 135 0.0 0.0 0.00 0.00 0.00 61 1065.0
20260906061500 27 135 0.0 0.0 0.00 0.00 0.00 61 1065.1
20260906060954 27 135 0.0 0.0 0.00 0.00 0.00 60 1065.3
20260906060450 27 135 0.0 1.6 0.00 0.00 0.00 60 1065.2
20260906055947 27 135 0.0 0.0 0.00 0.00 0.00 60 1065.1
20260906055443 27 135 0.0 0.0 0.00 0.00 0.00 60 1065.3
20260906054937 27 135 0.0 0.0 0.00 0.00 0.00 59 1065.3
20260906054433 27 135 0.0 0.0 0.00 0.00 0.00 59 1065.0
20260906053928 28 135 0.0 0.0 0.00 0.00 0.00 59 1065.3
20260906053425 28 135 0.0 0.0 0.00 0.00 0.00 58 1065.0
20260906052920 28 135 0.0 0.0 0.00 0.00 0.00 58 1065.1
20260906052416 28 135 0.0 0.0 0.00 0.00 0.00 58 1065.1
20260906051912 28 135 0.0 1.6 0.00 0.00 0.00 57 1065.1
20260906051407 28 135 0.0 1.6 0.00 0.00 0.00 57 1065.2
20260906050902 28 135 0.0 1.6 0.00 0.00 0.00 57 1065.2
20260906050357 28 135 0.0 0.0 0.00 0.00 0.00 56 1065.1
20260906045856 28 135 0.0 0.0 0.00 0.00 0.00 56 1065.0
20260906045355 28 135 0.0 0.0 0.00 0.00 0.00 56 1065.1
20260906044851 28 135 0.0 0.0 0.00 0.00 0.00 56 1065.1
20260906044351 29 135 0.0 0.0 0.00 0.00 0.00 56 1065.0
20260906043847 29 135 0.0 0.0 0.00 0.00 0.00 55 1065.0
20260906043343 29 135 0.0 0.0 0.00 0.00 0.00 55 1064.9
20260906042838 30 135 0.0 0.0 0.00 0.00 0.00 54 1065.0
20260906042337 30 135 0.0 0.0 0.00 0.00 0.00 54 1065.1
20260906041832 30 135 0.0 0.0 0.00 0.00 0.00 53 1065.2
20260906041328 30 135 0.0 0.0 0.00 0.00 0.00 52 1065.2
20260906040828 30 135 0.0 0.0 0.00 0.00 0.00 52 1065.1
20260906040323 30 135 0.0 0.0 0.00 0.00 0.00 52 1065.0
20260906035819 30 135 0.0 0.0 0.00 0.00 0.00 52 1065.1
20260906035314 30 135 0.0 0.0 0.00 0.00 0.00 51 1064.9
20260906034809 31 135 0.0 0.0 0.00 0.00 0.00 51 1065.0
20260906034303 31 135 0.0 0.0 0.00 0.00 0.00 50 1064.8
20260906033759 31 135 0.0 0.0 0.00 0.00 0.00 49 1064.8
20260906033258 31 135 0.0 0.0 0.00 0.00 0.00 48 1064.6
20260906032755 31 133 0.0 0.0 0.00 0.00 0.00 48 1064.6
20260906032250 32 144 0.0 1.6 0.00 0.00 0.00 48 1064.5
20260906031744 32 136 0.0 3.2 0.00 0.00 0.00 47 1064.5
20260906031241 32 132 1.6 3.2 0.00 0.00 0.00 47 1064.4
20260906030735 32 135 0.0 0.0 0.00 0.00 0.00 47 1064.5
20260906030230 32 137 1.6 1.6 0.00 0.00 0.00 46 1064.3
20260906025729 32 132 0.0 3.2 0.00 0.00 0.00 46 1064.4
20260906025223 32 141 3.2 3.2 0.00 0.00 0.00 46 1064.3
20260906024723 32 151 1.6 4.8 0.00 0.00 0.00 47 1064.4
20260906024222 32 151 0.0 0.0 0.00 0.00 0.00 47 1064.3
20260906023718 32 151 0.0 0.0 0.00 0.00 0.00 47 1064.4
20260906023213 32 151 0.0 1.6 0.00 0.00 0.00 47 1064.4
20260906022709 32 151 0.0 0.0 0.00 0.00 0.00 47 1064.0
20260906022204 32 151 0.0 1.6 0.00 0.00 0.00 46 1063.8
20260906021700 32 151 0.0 0.0 0.00 0.00 0.00 46 1063.8
20260906021158 32 150 0.0 0.0 0.00 0.00 0.00 46 1063.6
20260906020652 32 150 0.0 0.0 0.00 0.00 0.00 45 1063.7
20260906020148 32 150 1.6 1.6 0.00 0.00 0.00 45 1063.7
20260906015642 32 150 0.0 0.0 0.00 0.00 0.00 46 1063.6
20260906015141 32 150 0.0 1.6 0.00 0.00 0.00 45 1063.5
20260906014640 32 150 0.0 0.0 0.00 0.00 0.00 45 1063.7
20260906014137 32 150 0.0 1.6 0.00 0.00 0.00 44 1063.5
20260906013632 33 150 0.0 0.0 0.00 0.00 0.00 44 1063.3
20260906013127 33 150 0.0 1.6 0.00 0.00 0.00 44 1063.4
20260906012622 33 150 0.0 1.6 0.00 0.00 0.00 44 1063.3
20260906012117 33 150 0.0 1.6 0.00 0.00 0.00 44 1063.2
20260906011612 33 150 0.0 1.6 0.00 0.00 0.00 43 1063.3
20260906011107 33 149 0.0 0.0 0.00 0.00 0.00 43 1063.5
20260906010603 33 149 0.0 0.0 0.00 0.00 0.00 43 1063.3
20260906010058 33 149 0.0 1.6 0.00 0.00 0.00 42 1063.3
20260906005557 33 149 0.0 1.6 0.00 0.00 0.00 42 1063.3
20260906005056 34 148 0.0 0.0 0.00 0.00 0.00 42 1063.3
20260906004556 34 148 0.0 1.6 0.00 0.00 0.00 42 1063.3
20260906004051 35 147 0.0 0.0 0.00 0.00 0.00 41 1063.1
20260906003546 35 148 1.6 1.6 0.00 0.00 0.00 40 1063.1
20260906003042 35 145 0.0 1.6 0.00 0.00 0.00 40 1063.3
20260906002537 35 145 0.0 1.6 0.00 0.00 0.00 40 1063.1
20260906002032 35 144 0.0 0.0 0.00 0.00 0.00 39 1063.1
20260906001527 35 145 1.6 1.6 0.00 0.00 0.00 39 1063.2
20260906001021 36 141 1.6 3.2 0.00 0.00 0.00 38 1063.0
20260906000518 36 132 0.0 1.6 0.00 0.00 0.00 38 1063.2
20260906000012 36 153 1.6 3.2 0.00 0.00 0.00 38 1063.1
20260905235506 36 133 1.6 4.8 0.00 0.00 0.00 37 1063.1
20260905235001 36 206 3.2 9.7 0.00 0.00 0.00 37 1063.1
20260905234457 36 168 4.8 4.8 0.00 0.00 0.00 36 1063.2
20260905233956 36 155 1.6 6.4 0.00 0.00 0.00 36 1063.1
20260905233452 36 131 0.0 4.8 0.00 0.00 0.00 36 1063.1
20260905232950 36 130 0.0 6.4 0.00 0.00 0.00 36 1063.2
20260905232447 37 123 1.6 3.2 0.00 0.00 0.00 35 1063.2
20260905231942 37 120 0.0 3.2 0.00 0.00 0.00 34 1063.1
20260905231438 37 132 4.8 4.8 0.00 0.00 0.00 34 1063.3
20260905230928 38 155 3.2 4.8 0.00 0.00 0.00 34 1063.2
20260905230426 38 173 4.8 6.4 0.00 0.00 0.00 34 1063.2
20260905225920 38 111 1.6 3.2 0.00 0.00 0.00 34 1062.9
20260905225415 38 137 0.0 3.2 0.00 0.00 0.00 34 1063.2
20260905224910 38 81 3.2 4.8 0.00 0.00 0.00 34 1063.2
20260905224406 38 142 1.6 3.2 0.00 0.00 0.00 34 1063.2
20260905223859 38 131 1.6 1.6 0.00 0.00 0.00 34 1063.2
20260905223358 38 126 1.6 1.6 0.00 0.00 0.00 35 1063.3
20260905222857 39 126 1.6 3.2 0.00 0.00 0.00 34 1063.3
20260905222356 39 110 3.2 4.8 0.00 0.00 0.00 34 1063.3
20260905221852 39 134 3.2 4.8 0.00 0.00 0.00 34 1063.2
20260905221349 39 149 3.2 4.8 0.00 0.00 0.00 33 1063.2
20260905220839 39 183 3.2 9.7 0.00 0.00 0.00 33 1063.3
20260905220335 40 144 1.6 6.4 0.00 0.00 0.00 32 1063.2
20260905215835 40 171 3.2 4.8 0.00 0.00 0.00 32 1063.0
20260905215330 40 128 0.0 3.2 0.00 0.00 0.00 32 1063.2
20260905214827 40 144 3.2 4.8 0.00 0.00 0.00 33 1063.0
20260905214322 40 122 0.0 4.8 0.00 0.00 0.00 32 1063.2
20260905213816 40 158 0.0 3.2 0.00 0.00 0.00 33 1063.3
20260905213312 40 156 3.2 4.8 0.00 0.00 0.00 33 1063.2
20260905212807 40 139 4.8 4.8 0.00 0.00 0.00 32 1063.3
20260905212306 40 291 3.2 9.7 0.00 0.00 0.00 33 1063.3
20260905211802 40 129 3.2 3.2 0.00 0.00 0.00 33 1063.2
20260905211256 40 136 1.6 1.6 0.00 0.00 0.00 31 1063.3
20260905210754 39 121 0.0 4.8 0.00 0.00 0.00 33 1063.3
20260905210253 39 137 1.6 6.4 0.00 0.00 0.00 33 1063.4
20260905205752 39 179 3.2 4.8 0.00 0.00 0.00 33 1063.5
20260905205247 39 187 3.2 9.7 0.00 0.00 0.00 35 1063.6
20260905204746 39 184 3.2 3.2 0.00 0.00 0.00 33 1063.6
20260905204242 39 197 3.2 4.8 0.00 0.00 0.00 34 1063.7
20260905203741 40 144 3.2 6.4 0.00 0.00 0.00 34 1063.7
20260905203237 40 125 1.6 3.2 0.00 0.00 0.00 35 1063.9
20260905202732 39 147 1.6 3.2 0.00 0.00 0.00 35 1064.0
20260905202227 38 149 1.6 4.8 0.00 0.00 0.00 36 1064.1
20260905201722 39 123 1.6 6.4 0.00 0.00 0.00 36 1064.3
20260905201217 39 144 3.2 6.4 0.00 0.00 0.00 35 1064.4
20260905200712 39 125 3.2 4.8 0.00 0.00 0.00 36 1064.4
20260905200208 38 118 1.6 4.8 0.00 0.00 0.00 36 1064.4
20260905195706 38 130 3.2 3.2 0.00 0.00 0.00 37 1064.5
20260905195201 38 153 4.8 6.4 0.00 0.00 0.00 36 1064.7
20260905194656 37 121 1.6 6.4 0.00 0.00 0.00 38 1064.5
20260905194155 37 144 1.6 4.8 0.00 0.00 0.00 38 1064.6
20260905193650 38 151 1.6 11.3 0.00 0.00 0.00 37 1064.6